AFR972 LFPG-FNBJ

Flight info

Callsign AFR972
Flight time 8h 37m
Altitude 33000
Route AGOPA DCT ARKIP DCT ARMAL DCT ARTAX DCT BEBIX DCT LMG DCT UVELI DCT OSMOB DCT ARVID DCT PPN DCT NOLSA DCT ALEPO DCT VASUM DCT BANEV DCT BAN DCT PINAR DCT CJN L27 BLN DCT MGA DCT PIMOS DCT GALTO UN869 PELAX UB11 MABAP DCT BULIS/N0490F350 UR866 OG UR983 PAMPA DCT MONOS DCT TAMOK DCT AMPAN DCT INOSA/N0493F370 DCT NARPI UR603 STM UA400 VNA
Aircraft B77W/H-SDE1E2E3FGHIJ2J3J4J5M1RWXY/LB1D1

Departure

Time 2026-05-05 10:54
Airport Charles de Gaulle International Airport (LFPG)

Arrival

Time 2026-05-05 19:31
Airport Dr. Antonio Agostinho Neto International Airport (FNBJ)
Time Latitude Longitude Altitude Speed Heading
2026-05-05 10:33 49.01549 2.51180 365 ft 0 kts 356°
2026-05-05 10:46 49.01533 2.51181 366 ft 2 kts 358°
2026-05-05 10:46 49.01516 2.51182 363 ft 2 kts
2026-05-05 10:46 49.01500 2.51180 365 ft 2 kts
2026-05-05 10:46 49.01484 2.51176 366 ft 2 kts 20°
2026-05-05 10:47 49.01470 2.51163 368 ft 2 kts 58°
2026-05-05 10:47 49.01464 2.51144 366 ft 1 kts 82°
2026-05-05 10:47 49.01464 2.51140 365 ft 0 kts 83°
2026-05-05 10:51 49.01465 2.51145 366 ft 1 kts 83°
2026-05-05 10:51 49.01467 2.51172 368 ft 5 kts 83°
2026-05-05 10:51 49.01473 2.51246 363 ft 9 kts 78°
2026-05-05 10:51 49.01525 2.51306 366 ft 11 kts
2026-05-05 10:52 49.01614 2.51293 365 ft 14 kts 352°
2026-05-05 10:52 49.01709 2.51277 365 ft 14 kts 356°
2026-05-05 10:52 49.01804 2.51268 359 ft 14 kts 356°
2026-05-05 10:52 49.01900 2.51255 364 ft 14 kts 355°
2026-05-05 10:53 49.01991 2.51288 363 ft 14 kts 29°
2026-05-05 10:53 49.02064 2.51391 365 ft 15 kts 62°
2026-05-05 10:53 49.02083 2.51608 362 ft 39 kts 85°
2026-05-05 10:53 49.02129 2.52449 360 ft 118 kts 84°
2026-05-05 10:54 49.02219 2.54057 365 ft 184 kts 86°
2026-05-05 10:54 49.02303 2.56152 629 ft 204 kts 84°
2026-05-05 10:54 49.02413 2.58166 1592 ft 189 kts 82°
2026-05-05 10:54 49.02542 2.60206 2171 ft 200 kts 82°
2026-05-05 10:55 49.02674 2.62467 2269 ft 226 kts 83°
2026-05-05 10:55 49.02802 2.64938 2769 ft 238 kts 84°
2026-05-05 10:55 49.02933 2.67514 3398 ft 246 kts 85°
2026-05-05 10:55 49.03068 2.70142 4074 ft 251 kts 84°
2026-05-05 10:56 49.03205 2.72810 4825 ft 253 kts 85°
2026-05-05 10:56 49.03343 2.75499 5515 ft 257 kts 85°
2026-05-05 10:56 49.03483 2.78229 6251 ft 260 kts 85°
2026-05-05 10:56 49.03624 2.80952 6909 ft 263 kts 85°
2026-05-05 10:57 49.03767 2.83745 7559 ft 265 kts 85°
2026-05-05 10:57 49.03911 2.86562 8225 ft 267 kts 85°
2026-05-05 10:57 49.04055 2.89412 8832 ft 272 kts 85°
2026-05-05 10:57 49.04201 2.92296 9494 ft 274 kts 85°
2026-05-05 10:58 49.04244 2.95201 10005 ft 278 kts 99°
2026-05-05 10:58 49.03508 2.97969 10255 ft 295 kts 126°
2026-05-05 10:58 49.01912 3.00081 10400 ft 319 kts 153°
2026-05-05 10:58 48.99731 3.00907 10565 ft 339 kts 175°
2026-05-05 10:59 48.97296 3.00960 10728 ft 361 kts 178°
2026-05-05 10:59 48.94737 3.01002 11149 ft 373 kts 177°
2026-05-05 10:59 48.92131 3.00756 11626 ft 383 kts 192°
2026-05-05 10:59 48.89682 2.99087 12332 ft 392 kts 214°
2026-05-05 11:00 48.87717 2.96197 13199 ft 397 kts 232°
2026-05-05 11:00 48.86361 2.92530 13959 ft 403 kts 249°
2026-05-05 11:00 48.85740 2.88361 14638 ft 408 kts 262°
2026-05-05 11:00 48.85454 2.84111 15391 ft 413 kts 264°
2026-05-05 11:01 48.85205 2.79737 16148 ft 418 kts 264°
2026-05-05 11:01 48.84930 2.75314 16920 ft 423 kts 262°
2026-05-05 11:01 48.84610 2.70848 17647 ft 428 kts 262°
2026-05-05 11:01 48.84265 2.66345 18308 ft 431 kts 261°
2026-05-05 11:02 48.83637 2.61925 18803 ft 430 kts 245°
2026-05-05 11:02 48.82120 2.58088 19477 ft 421 kts 230°
2026-05-05 11:02 48.80342 2.54526 20009 ft 427 kts 231°
2026-05-05 11:02 48.78586 2.50864 20581 ft 431 kts 232°
2026-05-05 11:03 48.76864 2.47196 21224 ft 433 kts 232°
2026-05-05 11:03 48.75116 2.43461 21871 ft 436 kts 232°
2026-05-05 11:03 48.73315 2.39765 22385 ft 435 kts 226°
2026-05-05 11:03 48.71019 2.36813 22763 ft 433 kts 208°
2026-05-05 11:04 48.68383 2.34584 23190 ft 437 kts 207°
2026-05-05 11:04 48.65720 2.32321 23662 ft 440 kts 207°
2026-05-05 11:04 48.63061 2.30000 24151 ft 442 kts 208°
2026-05-05 11:04 48.60405 2.27636 24649 ft 444 kts 209°
2026-05-05 11:05 48.57744 2.25245 25103 ft 447 kts 209°
2026-05-05 11:05 48.55098 2.22864 25554 ft 450 kts 209°
2026-05-05 11:05 48.52401 2.20444 25983 ft 453 kts 209°
2026-05-05 11:05 48.49678 2.18013 26443 ft 456 kts 209°
2026-05-05 11:06 48.46931 2.15594 26885 ft 459 kts 208°
2026-05-05 11:06 48.44162 2.13172 27287 ft 463 kts 208°
2026-05-05 11:06 48.41365 2.10729 27724 ft 466 kts 208°
2026-05-05 11:06 48.38537 2.08257 27927 ft 475 kts 208°
2026-05-05 11:07 48.35673 2.05751 28271 ft 476 kts 208°
2026-05-05 11:07 48.32846 2.03282 28690 ft 476 kts 208°
2026-05-05 11:07 48.29899 2.01075 28897 ft 474 kts 197°
2026-05-05 11:07 48.26667 2.00153 29044 ft 474 kts 178°
2026-05-05 11:08 48.23395 2.00413 29283 ft 472 kts 175°
2026-05-05 11:08 48.20104 2.00649 29575 ft 476 kts 176°
2026-05-05 11:08 48.16782 2.00780 29882 ft 479 kts 177°
2026-05-05 11:08 48.13453 2.00863 30248 ft 478 kts 177°
2026-05-05 11:09 48.10141 2.00945 30753 ft 473 kts 177°
2026-05-05 11:09 48.06871 2.01046 31262 ft 468 kts 176°
2026-05-05 11:09 48.03627 2.01210 31696 ft 465 kts 176°
2026-05-05 11:09 48.00439 2.01406 32060 ft 464 kts 176°
2026-05-05 11:10 47.97224 2.01613 32369 ft 464 kts 176°
2026-05-05 11:10 47.94002 2.01817 32666 ft 463 kts 176°
2026-05-05 11:10 47.90775 2.02015 32796 ft 466 kts 176°
2026-05-05 11:11 47.84300 2.02394 32816 ft 464 kts 176°
2026-05-05 11:11 47.77889 2.02761 32815 ft 460 kts 176°
2026-05-05 11:12 47.71536 2.03127 32816 ft 460 kts 176°
2026-05-05 11:12 47.65128 2.03495 32814 ft 461 kts 176°
2026-05-05 11:13 47.58701 2.03867 32830 ft 463 kts 176°
2026-05-05 11:13 47.52251 2.04244 32836 ft 465 kts 176°
2026-05-05 11:14 47.45810 2.04620 32842 ft 467 kts 176°
2026-05-05 11:14 47.39316 2.04998 32847 ft 467 kts 176°
2026-05-05 11:15 47.32823 2.04957 32840 ft 468 kts 184°
2026-05-05 11:15 47.26394 2.03427 32860 ft 468 kts 188°
2026-05-05 11:16 47.20018 2.01748 32858 ft 469 kts 188°
2026-05-05 11:16 47.13595 2.00102 32869 ft 469 kts 188°
2026-05-05 11:17 47.07251 1.98501 32859 ft 470 kts 188°
2026-05-05 11:17 47.00800 1.96881 32870 ft 471 kts 188°
2026-05-05 11:18 46.94391 1.95274 32874 ft 471 kts 188°
2026-05-05 11:18 46.87931 1.93657 32863 ft 471 kts 188°
2026-05-05 11:19 46.81478 1.92045 32862 ft 470 kts 188°
2026-05-05 11:19 46.75030 1.90439 32868 ft 470 kts 188°
2026-05-05 11:20 46.68641 1.88850 32874 ft 469 kts 188°
2026-05-05 11:20 46.62209 1.87256 32865 ft 469 kts 188°
2026-05-05 11:21 46.55780 1.85666 32881 ft 469 kts 188°
2026-05-05 11:21 46.49360 1.84082 32886 ft 468 kts 188°
2026-05-05 11:22 46.42973 1.82509 32873 ft 468 kts 188°
2026-05-05 11:22 46.36560 1.80934 32887 ft 467 kts 188°
2026-05-05 11:23 46.30167 1.79320 32879 ft 466 kts 193°
2026-05-05 11:23 46.24182 1.75771 32896 ft 468 kts 209°
2026-05-05 11:24 46.19039 1.70106 32900 ft 470 kts 220°
2026-05-05 11:24 46.14134 1.63842 32906 ft 471 kts 220°
2026-05-05 11:25 46.09196 1.57647 32920 ft 471 kts 219°
2026-05-05 11:25 46.04230 1.51504 32905 ft 470 kts 219°
2026-05-05 11:26 45.99314 1.45439 32906 ft 470 kts 219°
2026-05-05 11:26 45.94864 1.38571 32937 ft 472 kts 232°
2026-05-05 11:27 45.91437 1.30538 32914 ft 472 kts 242°
2026-05-05 11:27 45.88522 1.22088 32909 ft 472 kts 242°
2026-05-05 11:28 45.85589 1.13752 32917 ft 472 kts 241°
2026-05-05 11:28 45.82409 1.05537 32905 ft 471 kts 233°
2026-05-05 11:29 45.78234 0.98514 32917 ft 469 kts 223°
2026-05-05 11:29 45.73261 0.92471 32915 ft 469 kts 219°
2026-05-05 11:30 45.68249 0.86588 32913 ft 469 kts 219°
2026-05-05 11:30 45.63220 0.80642 32919 ft 469 kts 219°
2026-05-05 11:31 45.58206 0.74686 32931 ft 469 kts 219°
2026-05-05 11:31 45.53187 0.68726 32932 ft 469 kts 219°
2026-05-05 11:32 45.48169 0.62782 32921 ft 468 kts 219°
2026-05-05 11:32 45.43194 0.56905 32943 ft 468 kts 219°
2026-05-05 11:33 45.38178 0.50995 32936 ft 468 kts 219°
2026-05-05 11:33 45.33170 0.45108 32922 ft 466 kts 219°
2026-05-05 11:34 45.28178 0.39254 32940 ft 465 kts 219°
2026-05-05 11:34 45.23220 0.33452 32947 ft 465 kts 219°
2026-05-05 11:35 45.18219 0.27614 32946 ft 466 kts 219°
2026-05-05 11:35 45.13218 0.21790 32941 ft 465 kts 219°
2026-05-05 11:36 45.08217 0.15976 32944 ft 465 kts 219°
2026-05-05 11:36 45.03251 0.10219 32946 ft 465 kts 219°
2026-05-05 11:37 44.98260 0.04452 32947 ft 464 kts 219°
2026-05-05 11:37 44.93354 -0.01208 32971 ft 463 kts 219°
2026-05-05 11:38 44.88361 -0.06957 32949 ft 463 kts 219°
2026-05-05 11:38 44.83369 -0.12691 32946 ft 463 kts 219°
2026-05-05 11:39 44.78406 -0.18380 32952 ft 463 kts 219°
2026-05-05 11:39 44.73406 -0.24100 32952 ft 464 kts 219°
2026-05-05 11:40 44.68394 -0.29820 32958 ft 464 kts 219°
2026-05-05 11:40 44.63178 -0.35137 32961 ft 464 kts 211°
2026-05-05 11:41 44.57496 -0.39326 32959 ft 464 kts 208°
2026-05-05 11:41 44.51760 -0.43482 32959 ft 464 kts 208°
2026-05-05 11:42 44.46049 -0.47652 32963 ft 463 kts 208°
2026-05-05 11:42 44.40344 -0.51827 32960 ft 462 kts 208°
2026-05-05 11:43 44.34700 -0.55952 32959 ft 460 kts 208°
2026-05-05 11:43 44.29037 -0.60082 32961 ft 458 kts 208°
2026-05-05 11:44 44.23390 -0.64189 32969 ft 457 kts 208°
2026-05-05 11:44 44.17789 -0.68255 32974 ft 456 kts 208°
2026-05-05 11:45 44.12162 -0.72330 32984 ft 456 kts 208°
2026-05-05 11:45 44.06532 -0.76398 32993 ft 456 kts 208°
2026-05-05 11:46 44.00891 -0.80466 32980 ft 458 kts 208°
2026-05-05 11:46 43.95278 -0.84504 32983 ft 459 kts 208°
2026-05-05 11:47 43.89609 -0.88575 32987 ft 459 kts 208°
2026-05-05 11:47 43.83923 -0.92649 32992 ft 460 kts 208°
2026-05-05 11:48 43.75403 -0.98736 32993 ft 459 kts 209°
2026-05-05 11:48 43.69861 -1.02685 32992 ft 458 kts 209°
2026-05-05 11:49 43.64204 -1.06708 32994 ft 457 kts 209°
2026-05-05 11:49 43.58562 -1.10711 32998 ft 456 kts 209°
2026-05-05 11:50 43.52926 -1.14702 33022 ft 455 kts 209°
2026-05-05 11:50 43.47333 -1.18655 33006 ft 455 kts 209°
2026-05-05 11:51 43.41699 -1.22627 33000 ft 455 kts 209°
2026-05-05 11:51 43.36058 -1.26597 33013 ft 456 kts 209°
2026-05-05 11:52 43.30407 -1.30566 33012 ft 457 kts 209°
2026-05-05 11:52 43.24745 -1.34533 33010 ft 457 kts 209°
2026-05-05 11:53 43.19118 -1.38468 33003 ft 457 kts 209°
2026-05-05 11:53 43.13449 -1.42426 33001 ft 457 kts 209°
2026-05-05 11:54 43.07782 -1.46370 32995 ft 457 kts 209°
2026-05-05 11:54 43.02124 -1.50307 33004 ft 456 kts 209°
2026-05-05 11:55 42.96530 -1.54196 33006 ft 455 kts 210°
2026-05-05 11:55 42.90894 -1.58108 33002 ft 454 kts 210°
2026-05-05 11:56 42.85253 -1.62015 32997 ft 455 kts 210°
2026-05-05 11:56 42.79606 -1.65919 32992 ft 455 kts 210°
2026-05-05 11:57 42.73958 -1.69814 32993 ft 455 kts 210°
2026-05-05 11:57 42.68329 -1.73633 32997 ft 456 kts 209°
2026-05-05 11:58 42.62635 -1.77440 32993 ft 456 kts 209°
2026-05-05 11:58 42.56944 -1.81247 32983 ft 456 kts 209°
2026-05-05 11:59 42.51262 -1.85050 32974 ft 455 kts 209°
2026-05-05 11:59 42.45626 -1.88814 32987 ft 454 kts 209°
2026-05-05 12:00 42.39953 -1.92597 32986 ft 455 kts 209°
2026-05-05 12:00 42.34277 -1.96380 32981 ft 455 kts 209°
2026-05-05 12:01 42.28680 -2.00112 32976 ft 455 kts 209°
2026-05-05 12:01 42.23046 -2.03856 32971 ft 455 kts 209°
2026-05-05 12:02 42.17368 -2.07616 32968 ft 454 kts 209°
2026-05-05 12:02 42.11702 -2.11360 32970 ft 453 kts 209°
2026-05-05 12:03 42.06036 -2.15099 32966 ft 453 kts 209°
2026-05-05 12:03 42.00414 -2.18803 32965 ft 453 kts 209°
2026-05-05 12:04 41.94765 -2.22516 32934 ft 452 kts 210°
2026-05-05 12:04 41.89121 -2.26219 32958 ft 451 kts 210°
2026-05-05 12:05 41.83481 -2.29913 32964 ft 451 kts 210°
2026-05-05 12:05 41.77825 -2.33611 32962 ft 453 kts 210°
2026-05-05 12:06 41.72188 -2.37287 32954 ft 454 kts 210°
2026-05-05 12:06 41.66519 -2.40977 32959 ft 453 kts 210°
2026-05-05 12:07 41.60852 -2.44660 32967 ft 453 kts 210°
2026-05-05 12:07 41.55186 -2.48335 32972 ft 452 kts 210°
2026-05-05 12:08 41.49568 -2.51970 32961 ft 450 kts 210°
2026-05-05 12:08 41.43946 -2.55588 32969 ft 448 kts 210°
2026-05-05 12:09 41.38345 -2.59186 32976 ft 446 kts 210°
2026-05-05 12:09 41.32459 -2.61880 32980 ft 454 kts 196°
2026-05-05 12:10 41.26149 -2.62587 32976 ft 465 kts 183°
2026-05-05 12:10 41.19681 -2.61943 32981 ft 467 kts 182°
2026-05-05 12:11 41.13202 -2.61273 32984 ft 467 kts 182°
2026-05-05 12:11 41.06722 -2.60675 32981 ft 466 kts 183°
2026-05-05 12:12 41.00292 -2.60105 32987 ft 466 kts 183°
2026-05-05 12:12 40.93829 -2.59528 32989 ft 466 kts 183°
2026-05-05 12:13 40.87361 -2.58950 32940 ft 465 kts 184°
2026-05-05 12:13 40.80920 -2.58373 32978 ft 463 kts 184°
2026-05-05 12:14 40.74545 -2.57801 32987 ft 462 kts 184°
2026-05-05 12:14 40.68147 -2.57236 32981 ft 460 kts 184°
2026-05-05 12:15 40.61763 -2.56669 32988 ft 460 kts 184°
2026-05-05 12:15 40.55378 -2.56105 32995 ft 460 kts 184°
2026-05-05 12:16 40.48982 -2.55540 32995 ft 461 kts 184°
2026-05-05 12:16 40.42627 -2.54982 32971 ft 460 kts 185°
2026-05-05 12:17 40.36396 -2.55583 33002 ft 443 kts 198°
2026-05-05 12:17 40.30527 -2.57749 32987 ft 435 kts 207°
2026-05-05 12:18 40.24882 -2.60630 32985 ft 436 kts 207°
2026-05-05 12:18 40.19263 -2.63489 32985 ft 436 kts 207°
2026-05-05 12:19 40.13597 -2.66338 32974 ft 436 kts 207°
2026-05-05 12:19 40.07926 -2.69171 32986 ft 437 kts 207°
2026-05-05 12:20 40.02241 -2.72005 32983 ft 438 kts 207°
2026-05-05 12:20 39.97517 -2.74355 32968 ft 438 kts 208°
2026-05-05 12:21 39.90907 -2.77638 32983 ft 437 kts 208°
2026-05-05 12:21 39.85221 -2.80458 32988 ft 437 kts 208°
2026-05-05 12:22 39.80502 -2.82795 32985 ft 437 kts 208°
2026-05-05 12:22 39.74816 -2.85605 32952 ft 436 kts 208°
2026-05-05 12:23 39.68226 -2.88857 32982 ft 436 kts 208°
2026-05-05 12:23 39.63510 -2.91181 32991 ft 436 kts 208°
2026-05-05 12:24 39.57832 -2.93973 32991 ft 436 kts 208°
2026-05-05 12:24 39.52154 -2.96771 32958 ft 436 kts 208°
2026-05-05 12:25 39.45569 -3.00014 32983 ft 436 kts 208°
2026-05-05 12:25 39.40929 -3.02293 32985 ft 437 kts 208°
2026-05-05 12:26 39.35239 -3.05071 32987 ft 437 kts 208°
2026-05-05 12:26 39.29531 -3.07837 32931 ft 438 kts 209°
2026-05-05 12:27 39.23828 -3.10598 32975 ft 438 kts 209°
2026-05-05 12:27 39.18124 -3.13358 32987 ft 438 kts 209°
2026-05-05 12:28 39.12460 -3.16095 32982 ft 438 kts 209°
2026-05-05 12:28 39.06752 -3.18848 32954 ft 437 kts 209°
2026-05-05 12:29 39.01066 -3.21585 32982 ft 436 kts 209°
2026-05-05 12:29 38.95392 -3.24317 32985 ft 435 kts 209°
2026-05-05 12:30 38.89760 -3.27031 32988 ft 435 kts 209°
2026-05-05 12:30 38.84090 -3.29761 32924 ft 435 kts 208°
2026-05-05 12:31 38.78429 -3.32481 32980 ft 434 kts 208°
2026-05-05 12:31 38.72760 -3.35199 32987 ft 435 kts 208°
2026-05-05 12:32 38.67084 -3.37917 32990 ft 436 kts 208°
2026-05-05 12:32 38.61430 -3.40620 32983 ft 437 kts 208°
2026-05-05 12:33 38.55735 -3.43336 32983 ft 437 kts 208°
2026-05-05 12:33 38.50029 -3.46054 32985 ft 438 kts 208°
2026-05-05 12:34 38.44308 -3.48774 32998 ft 439 kts 208°
2026-05-05 12:34 38.38577 -3.51497 32993 ft 440 kts 208°
2026-05-05 12:35 38.32869 -3.54200 32990 ft 440 kts 208°
2026-05-05 12:35 38.27126 -3.56917 32983 ft 440 kts 208°
2026-05-05 12:36 38.21390 -3.59626 32993 ft 440 kts 208°
2026-05-05 12:36 38.15659 -3.62336 32991 ft 439 kts 209°
2026-05-05 12:37 38.10105 -3.65402 32989 ft 434 kts 211°
2026-05-05 12:37 38.04621 -3.68529 32987 ft 436 kts 211°
2026-05-05 12:38 37.99078 -3.71676 32994 ft 438 kts 211°
2026-05-05 12:38 37.93506 -3.74824 32996 ft 439 kts 211°
2026-05-05 12:39 37.87921 -3.77970 32952 ft 440 kts 210°
2026-05-05 12:39 37.82338 -3.81108 32989 ft 439 kts 210°
2026-05-05 12:40 37.76786 -3.84224 32997 ft 440 kts 211°
2026-05-05 12:40 37.71185 -3.87365 32994 ft 441 kts 211°
2026-05-05 12:41 37.65566 -3.90510 32999 ft 442 kts 211°
2026-05-05 12:41 37.59941 -3.93652 32989 ft 442 kts 210°
2026-05-05 12:42 37.54318 -3.96788 33001 ft 442 kts 210°
2026-05-05 12:42 37.48741 -3.99893 33011 ft 440 kts 210°
2026-05-05 12:43 37.43217 -4.02963 33000 ft 441 kts 210°
2026-05-05 12:43 37.37599 -4.06083 32999 ft 441 kts 210°
2026-05-05 12:44 37.31973 -4.09199 32998 ft 442 kts 210°
2026-05-05 12:44 37.26377 -4.12295 33007 ft 443 kts 210°
2026-05-05 12:45 37.20731 -4.15415 32995 ft 444 kts 210°
2026-05-05 12:45 37.15078 -4.18532 32960 ft 444 kts 209°
2026-05-05 12:46 37.09422 -4.21645 32988 ft 445 kts 209°
2026-05-05 12:46 37.03748 -4.24764 32980 ft 446 kts 209°
2026-05-05 12:47 36.98127 -4.27848 33004 ft 445 kts 209°
2026-05-05 12:47 36.92456 -4.30955 32974 ft 444 kts 209°
2026-05-05 12:48 36.86792 -4.34054 32973 ft 445 kts 209°
2026-05-05 12:48 36.81187 -4.37233 32957 ft 444 kts 213°
2026-05-05 12:49 36.75967 -4.41256 32968 ft 442 kts 217°
2026-05-05 12:49 36.70784 -4.45419 32966 ft 444 kts 217°
2026-05-05 12:50 36.65575 -4.49559 32950 ft 444 kts 217°
2026-05-05 12:50 36.60348 -4.53694 32957 ft 446 kts 217°
2026-05-05 12:51 36.55149 -4.57799 32988 ft 446 kts 217°
2026-05-05 12:51 36.49907 -4.61932 32985 ft 446 kts 217°
2026-05-05 12:52 36.44675 -4.66051 32993 ft 445 kts 217°
2026-05-05 12:52 36.39448 -4.70162 32970 ft 445 kts 217°
2026-05-05 12:53 36.34252 -4.74241 32996 ft 445 kts 217°
2026-05-05 12:53 36.29008 -4.78351 33002 ft 446 kts 217°
2026-05-05 12:54 36.21114 -4.84526 33005 ft 448 kts 217°
2026-05-05 12:55 36.15835 -4.88647 33007 ft 449 kts 217°
2026-05-05 12:55 36.10603 -4.92769 33023 ft 449 kts 217°
2026-05-05 12:56 36.05348 -4.96954 33022 ft 450 kts 217°
2026-05-05 12:56 36.00159 -5.01076 33022 ft 451 kts 217°
2026-05-05 12:57 35.94877 -5.05257 33007 ft 452 kts 217°
2026-05-05 12:57 35.89622 -5.09411 33024 ft 451 kts 217°
2026-05-05 12:58 35.84334 -5.13583 33023 ft 451 kts 217°
2026-05-05 12:58 35.79261 -5.18071 33024 ft 448 kts 220°
2026-05-05 12:59 35.74279 -5.22691 33028 ft 448 kts 220°
2026-05-05 12:59 35.69330 -5.27263 33030 ft 448 kts 220°
2026-05-05 13:00 35.61843 -5.34147 33010 ft 448 kts 220°
2026-05-05 13:01 35.51828 -5.43322 33028 ft 450 kts 220°
2026-05-05 13:01 35.46832 -5.47887 33016 ft 451 kts 220°
2026-05-05 13:02 35.41794 -5.52484 33032 ft 452 kts 220°
2026-05-05 13:02 35.36744 -5.57084 33015 ft 452 kts 220°
2026-05-05 13:03 35.31696 -5.61675 33025 ft 452 kts 220°
2026-05-05 13:03 35.26685 -5.66226 33046 ft 452 kts 220°
2026-05-05 13:04 35.21630 -5.70809 33042 ft 452 kts 220°
2026-05-05 13:04 35.16574 -5.75386 33044 ft 452 kts 220°
2026-05-05 13:05 35.11519 -5.79954 33044 ft 452 kts 220°
2026-05-05 13:05 35.06464 -5.84516 33054 ft 452 kts 219°
2026-05-05 13:06 35.01442 -5.89041 33055 ft 452 kts 219°
2026-05-05 13:06 34.96377 -5.93597 33039 ft 453 kts 219°
2026-05-05 13:07 34.91302 -5.98156 33054 ft 453 kts 219°
2026-05-05 13:07 34.86298 -6.02643 33042 ft 454 kts 219°
2026-05-05 13:08 34.81243 -6.07169 33040 ft 454 kts 219°
2026-05-05 13:08 34.76154 -6.11719 33050 ft 454 kts 219°
2026-05-05 13:09 34.71068 -6.16257 33050 ft 454 kts 219°
2026-05-05 13:09 34.65982 -6.20789 33049 ft 453 kts 219°
2026-05-05 13:10 34.60929 -6.25285 33053 ft 453 kts 219°
2026-05-05 13:10 34.55844 -6.29802 33029 ft 453 kts 219°
2026-05-05 13:11 34.50760 -6.34313 33047 ft 453 kts 219°
2026-05-05 13:11 34.45670 -6.38821 33048 ft 453 kts 219°
2026-05-05 13:12 34.40606 -6.43299 33050 ft 454 kts 219°
2026-05-05 13:12 34.35501 -6.47807 33053 ft 455 kts 218°
2026-05-05 13:13 34.30384 -6.52318 33051 ft 456 kts 218°
2026-05-05 13:13 34.25262 -6.56826 33044 ft 455 kts 219°
2026-05-05 13:14 34.20182 -6.61291 33049 ft 454 kts 219°
2026-05-05 13:14 34.15076 -6.65773 33048 ft 454 kts 219°
2026-05-05 13:15 34.09972 -6.70247 33046 ft 453 kts 219°
2026-05-05 13:15 34.04870 -6.74711 33050 ft 453 kts 219°
2026-05-05 13:16 33.99741 -6.79004 33047 ft 451 kts 218°
2026-05-05 13:16 33.94575 -6.83208 33050 ft 446 kts 218°
2026-05-05 13:17 33.89458 -6.87382 33048 ft 443 kts 218°
2026-05-05 13:17 33.84380 -6.91541 33055 ft 440 kts 218°
2026-05-05 13:18 33.79355 -6.95659 33049 ft 440 kts 218°
2026-05-05 13:18 33.74294 -6.99799 33060 ft 437 kts 220°
2026-05-05 13:19 33.71889 -7.01758 33050 ft 425 kts 220°
2026-05-05 13:19 33.69467 -7.03729 33056 ft 417 kts 220°
2026-05-05 13:19 33.64653 -7.07663 33083 ft 421 kts 220°
2026-05-05 13:20 33.59784 -7.11639 33076 ft 425 kts 220°
2026-05-05 13:20 33.54908 -7.15608 33080 ft 428 kts 220°
2026-05-05 13:21 33.49981 -7.19609 33072 ft 428 kts 220°
2026-05-05 13:21 33.45057 -7.23601 33060 ft 427 kts 220°
2026-05-05 13:22 33.40185 -7.27547 33052 ft 425 kts 220°
2026-05-05 13:22 33.35300 -7.31497 33055 ft 423 kts 220°
2026-05-05 13:23 33.30433 -7.35430 33048 ft 422 kts 220°
2026-05-05 13:23 33.25569 -7.39356 33055 ft 422 kts 220°
2026-05-05 13:24 33.20707 -7.43273 33064 ft 422 kts 220°
2026-05-05 13:24 33.15868 -7.47169 33047 ft 422 kts 220°
2026-05-05 13:25 33.10972 -7.51061 33039 ft 425 kts 218°
2026-05-05 13:25 33.05877 -7.54655 33038 ft 426 kts 217°
2026-05-05 13:26 33.00761 -7.58228 33052 ft 426 kts 217°
2026-05-05 13:26 32.95690 -7.61784 33045 ft 426 kts 217°
2026-05-05 13:27 32.90591 -7.65361 33040 ft 425 kts 217°
2026-05-05 13:27 32.85485 -7.68939 33041 ft 426 kts 216°
2026-05-05 13:28 32.80378 -7.72538 33037 ft 427 kts 217°
2026-05-05 13:28 32.75260 -7.76154 33033 ft 428 kts 217°
2026-05-05 13:29 32.70167 -7.79744 33033 ft 429 kts 217°
2026-05-05 13:29 32.65031 -7.83344 33031 ft 429 kts 216°
2026-05-05 13:30 32.59881 -7.86917 33019 ft 429 kts 217°
2026-05-05 13:30 32.54730 -7.90488 33030 ft 429 kts 217°
2026-05-05 13:31 32.49614 -7.94033 33030 ft 429 kts 217°
2026-05-05 13:31 32.44455 -7.97606 33024 ft 430 kts 217°
2026-05-05 13:32 32.39369 -8.01123 33025 ft 430 kts 217°
2026-05-05 13:32 32.34205 -8.04689 33014 ft 429 kts 217°
2026-05-05 13:33 32.29062 -8.08236 33020 ft 428 kts 217°
2026-05-05 13:33 32.23965 -8.11748 33020 ft 426 kts 217°
2026-05-05 13:34 32.18844 -8.15272 33020 ft 426 kts 217°
2026-05-05 13:34 32.13519 -8.18472 33377 ft 435 kts 210°
2026-05-05 13:35 32.10668 -8.19693 33804 ft 435 kts 207°
2026-05-05 13:35 32.07771 -8.20723 34193 ft 436 kts 204°
2026-05-05 13:35 32.04803 -8.21459 34640 ft 435 kts 201°
2026-05-05 13:35 32.01870 -8.22104 34913 ft 434 kts 201°
2026-05-05 13:36 31.95899 -8.23390 34998 ft 438 kts 201°
2026-05-05 13:36 31.89925 -8.24682 35002 ft 435 kts 201°
2026-05-05 13:37 31.83990 -8.25981 35011 ft 433 kts 201°
2026-05-05 13:37 31.78118 -8.27274 34997 ft 431 kts 201°
2026-05-05 13:38 31.72224 -8.28574 35010 ft 431 kts 201°
2026-05-05 13:38 31.66326 -8.29875 35017 ft 432 kts 201°
2026-05-05 13:39 31.60408 -8.31178 35013 ft 433 kts 201°
2026-05-05 13:39 31.54469 -8.32482 35022 ft 435 kts 201°
2026-05-05 13:40 31.48558 -8.33777 35009 ft 435 kts 201°
2026-05-05 13:40 31.42603 -8.35079 35033 ft 436 kts 201°
2026-05-05 13:41 31.36645 -8.36382 35024 ft 435 kts 201°
2026-05-05 13:41 31.30695 -8.37679 35028 ft 434 kts 201°
2026-05-05 13:42 31.24802 -8.38962 35012 ft 433 kts 201°
2026-05-05 13:42 31.18889 -8.40252 35020 ft 432 kts 201°
2026-05-05 13:43 31.12983 -8.41536 35031 ft 432 kts 201°
2026-05-05 13:43 31.07073 -8.42821 35062 ft 432 kts 201°
2026-05-05 13:44 31.01182 -8.44101 35012 ft 434 kts 201°
2026-05-05 13:44 30.95251 -8.45386 34985 ft 433 kts 201°
2026-05-05 13:45 30.89332 -8.46664 35010 ft 432 kts 200°
2026-05-05 13:45 30.83432 -8.47937 35003 ft 432 kts 200°
2026-05-05 13:46 30.77532 -8.49210 34994 ft 431 kts 201°
2026-05-05 13:46 30.71668 -8.50478 34992 ft 432 kts 201°
2026-05-05 13:47 30.65759 -8.51752 34950 ft 432 kts 200°
2026-05-05 13:47 30.59838 -8.53026 34967 ft 433 kts 200°
2026-05-05 13:48 30.53903 -8.54301 34979 ft 434 kts 200°
2026-05-05 13:48 30.47994 -8.55568 34972 ft 435 kts 200°
2026-05-05 13:49 30.42037 -8.56844 34967 ft 436 kts 200°
2026-05-05 13:49 30.36084 -8.58116 34978 ft 435 kts 200°
2026-05-05 13:50 30.30132 -8.59389 34977 ft 436 kts 200°
2026-05-05 13:50 30.24203 -8.60655 34978 ft 437 kts 200°
2026-05-05 13:51 30.18236 -8.61926 34985 ft 435 kts 200°
2026-05-05 13:51 30.12290 -8.63189 34985 ft 434 kts 200°
2026-05-05 13:52 30.06350 -8.64456 34994 ft 435 kts 200°
2026-05-05 13:52 30.00382 -8.65726 34979 ft 437 kts 200°
2026-05-05 13:53 29.94449 -8.66984 34980 ft 437 kts 200°
2026-05-05 13:53 29.88467 -8.68251 34981 ft 437 kts 200°
2026-05-05 13:54 29.82487 -8.69516 34946 ft 437 kts 200°
2026-05-05 13:54 29.76508 -8.70779 34955 ft 437 kts 200°
2026-05-05 13:55 29.70557 -8.72036 34972 ft 438 kts 200°
2026-05-05 13:55 29.64550 -8.73304 34944 ft 440 kts 200°
2026-05-05 13:56 29.58530 -8.74575 34946 ft 440 kts 200°
2026-05-05 13:56 29.52497 -8.75840 34894 ft 440 kts 200°
2026-05-05 13:57 29.46518 -8.77094 34906 ft 440 kts 200°
2026-05-05 13:57 29.40509 -8.78355 34913 ft 439 kts 200°
2026-05-05 13:58 29.34503 -8.79614 34928 ft 438 kts 200°
2026-05-05 13:58 29.28502 -8.80871 34912 ft 439 kts 200°
2026-05-05 13:59 29.19535 -8.82747 34900 ft 439 kts 200°
2026-05-05 14:00 29.11492 -8.84426 34894 ft 440 kts 200°
2026-05-05 14:00 29.04490 -8.85884 34873 ft 440 kts 200°
2026-05-05 14:01 28.98475 -8.87136 34876 ft 440 kts 200°
2026-05-05 14:01 28.92449 -8.88388 34862 ft 440 kts 200°
2026-05-05 14:02 28.86468 -8.89630 34868 ft 440 kts 200°
2026-05-05 14:02 28.80440 -8.90881 34876 ft 441 kts 200°
2026-05-05 14:03 28.74404 -8.92131 34875 ft 441 kts 200°
2026-05-05 14:03 28.68362 -8.93381 34874 ft 441 kts 200°
2026-05-05 14:04 28.62366 -8.94620 34873 ft 441 kts 200°
2026-05-05 14:04 28.56328 -8.95865 34878 ft 441 kts 200°
2026-05-05 14:05 28.50296 -8.97109 34890 ft 441 kts 200°
2026-05-05 14:05 28.44258 -8.98353 34893 ft 441 kts 200°
2026-05-05 14:06 28.38263 -8.99586 34880 ft 441 kts 200°
2026-05-05 14:06 28.32329 -9.00805 34883 ft 440 kts 199°
2026-05-05 14:07 28.26299 -9.02043 34888 ft 440 kts 199°
2026-05-05 14:07 28.20264 -9.03280 34902 ft 441 kts 199°
2026-05-05 14:08 28.14270 -9.04508 34893 ft 441 kts 199°
2026-05-05 14:08 28.08229 -9.05743 34897 ft 441 kts 199°
2026-05-05 14:09 28.02189 -9.06977 34892 ft 441 kts 199°
2026-05-05 14:09 27.96153 -9.08209 34905 ft 441 kts 199°
2026-05-05 14:10 27.90144 -9.09434 34921 ft 442 kts 199°
2026-05-05 14:10 27.84087 -9.10667 34907 ft 442 kts 199°
2026-05-05 14:11 27.78037 -9.11897 34903 ft 442 kts 199°
2026-05-05 14:11 27.71992 -9.13120 34893 ft 440 kts 198°
2026-05-05 14:12 27.68890 -9.13334 34901 ft 455 kts 186°
2026-05-05 14:12 27.65748 -9.12906 34910 ft 467 kts 179°
2026-05-05 14:12 27.62573 -9.11964 34902 ft 480 kts 169°
2026-05-05 14:12 27.59491 -9.10407 34919 ft 489 kts 163°
2026-05-05 14:13 27.53399 -9.06900 34894 ft 493 kts 162°
2026-05-05 14:13 27.47296 -9.03350 34894 ft 494 kts 163°
2026-05-05 14:14 27.41202 -8.99884 34893 ft 494 kts 163°
2026-05-05 14:14 27.35047 -8.96435 34892 ft 494 kts 163°
2026-05-05 14:15 27.28895 -8.93002 34889 ft 493 kts 163°
2026-05-05 14:15 27.22748 -8.89574 34890 ft 493 kts 163°
2026-05-05 14:16 27.16610 -8.86153 34879 ft 491 kts 163°
2026-05-05 14:16 27.10535 -8.82769 34885 ft 491 kts 163°
2026-05-05 14:17 27.04421 -8.79368 34889 ft 490 kts 163°
2026-05-05 14:17 26.98314 -8.75977 34888 ft 490 kts 163°
2026-05-05 14:18 26.92201 -8.72586 34890 ft 490 kts 163°
2026-05-05 14:18 26.86129 -8.69221 34894 ft 490 kts 163°
2026-05-05 14:19 26.80013 -8.65836 34882 ft 491 kts 163°
2026-05-05 14:19 26.73881 -8.62447 34894 ft 492 kts 163°
2026-05-05 14:20 26.67741 -8.59057 34894 ft 492 kts 163°
2026-05-05 14:20 26.61634 -8.55688 34893 ft 493 kts 163°
2026-05-05 14:21 26.55485 -8.52300 34881 ft 493 kts 163°
2026-05-05 14:21 26.49329 -8.48914 34886 ft 493 kts 163°
2026-05-05 14:22 26.43172 -8.45530 34888 ft 494 kts 163°
2026-05-05 14:22 26.37048 -8.42169 34886 ft 494 kts 163°
2026-05-05 14:23 26.30888 -8.38792 34857 ft 494 kts 163°
2026-05-05 14:23 26.24733 -8.35422 34876 ft 493 kts 163°
2026-05-05 14:24 26.18567 -8.32050 34881 ft 494 kts 163°
2026-05-05 14:24 26.12439 -8.28703 34884 ft 494 kts 163°
2026-05-05 14:25 26.06260 -8.25332 34883 ft 495 kts 163°
2026-05-05 14:25 26.00078 -8.21963 34860 ft 495 kts 163°
2026-05-05 14:26 25.93903 -8.18601 34875 ft 495 kts 163°
2026-05-05 14:26 25.87762 -8.15262 34873 ft 495 kts 163°
2026-05-05 14:27 25.81576 -8.11903 34888 ft 495 kts 163°
2026-05-05 14:27 25.75388 -8.08546 34873 ft 495 kts 163°
2026-05-05 14:28 25.69200 -8.05194 34868 ft 495 kts 163°
2026-05-05 14:28 25.63059 -8.01870 34877 ft 495 kts 163°
2026-05-05 14:29 25.56970 -7.98579 34877 ft 495 kts 163°
2026-05-05 14:29 25.50781 -7.95237 34879 ft 495 kts 163°
2026-05-05 14:30 25.44584 -7.91895 34875 ft 495 kts 163°
2026-05-05 14:30 25.38388 -7.88556 34869 ft 495 kts 162°
2026-05-05 14:31 25.32232 -7.85244 34878 ft 496 kts 162°
2026-05-05 14:31 25.26023 -7.81907 34875 ft 496 kts 162°
2026-05-05 14:32 25.19810 -7.78570 34872 ft 497 kts 162°
2026-05-05 14:32 25.13591 -7.75235 34873 ft 497 kts 163°
2026-05-05 14:33 25.07373 -7.71907 34863 ft 497 kts 162°
2026-05-05 14:33 25.01198 -7.68604 34872 ft 497 kts 162°
2026-05-05 14:34 24.94983 -7.65282 34871 ft 497 kts 162°
2026-05-05 14:34 24.88764 -7.61962 34873 ft 497 kts 162°
2026-05-05 14:35 24.82541 -7.58642 34869 ft 497 kts 162°
2026-05-05 14:35 24.76373 -7.55355 34873 ft 495 kts 162°
2026-05-05 14:36 24.70170 -7.52054 34867 ft 495 kts 162°
2026-05-05 14:36 24.63972 -7.48760 34867 ft 495 kts 162°
2026-05-05 14:37 24.57778 -7.45472 34871 ft 494 kts 162°
2026-05-05 14:37 24.51579 -7.42184 34871 ft 494 kts 162°
2026-05-05 14:38 24.45423 -7.38923 34861 ft 495 kts 162°
2026-05-05 14:38 24.39225 -7.35643 34864 ft 495 kts 162°
2026-05-05 14:39 24.33020 -7.32363 34859 ft 495 kts 162°
2026-05-05 14:39 24.26820 -7.29088 34860 ft 495 kts 162°
2026-05-05 14:40 24.20614 -7.25815 34838 ft 495 kts 162°
2026-05-05 14:40 24.14448 -7.22566 34851 ft 495 kts 162°
2026-05-05 14:41 24.08240 -7.19299 34851 ft 495 kts 163°
2026-05-05 14:41 24.02026 -7.16032 34853 ft 496 kts 163°
2026-05-05 14:42 23.95850 -7.12787 34853 ft 496 kts 163°
2026-05-05 14:42 23.89622 -7.09520 34822 ft 497 kts 163°
2026-05-05 14:43 23.83396 -7.06256 34845 ft 497 kts 163°
2026-05-05 14:43 23.77160 -7.02992 34855 ft 497 kts 163°
2026-05-05 14:44 23.71018 -6.99780 34856 ft 498 kts 163°
2026-05-05 14:44 23.64806 -6.96533 34842 ft 498 kts 163°
2026-05-05 14:45 23.58550 -6.93266 34817 ft 499 kts 163°
2026-05-05 14:45 23.52294 -6.90007 34844 ft 498 kts 163°
2026-05-05 14:46 23.46032 -6.86752 34847 ft 499 kts 163°
2026-05-05 14:46 23.39808 -6.83518 34842 ft 499 kts 163°
2026-05-05 14:47 23.33546 -6.80266 34844 ft 499 kts 163°
2026-05-05 14:47 23.27279 -6.77015 34824 ft 499 kts 163°
2026-05-05 14:48 23.22074 -6.74317 34835 ft 499 kts 163°
2026-05-05 14:48 23.15806 -6.71072 34842 ft 499 kts 163°
2026-05-05 14:49 23.08517 -6.67303 34846 ft 499 kts 163°
2026-05-05 14:49 23.02242 -6.64061 34843 ft 500 kts 163°
2026-05-05 14:50 22.97030 -6.61371 34846 ft 500 kts 163°
2026-05-05 14:50 22.90752 -6.58134 34832 ft 500 kts 163°
2026-05-05 14:51 22.84471 -6.54899 34840 ft 500 kts 163°
2026-05-05 14:51 22.78189 -6.51666 34841 ft 500 kts 163°
2026-05-05 14:52 22.71940 -6.48454 34838 ft 500 kts 163°
2026-05-05 14:52 22.65645 -6.45222 34837 ft 501 kts 163°
2026-05-05 14:53 22.59353 -6.41994 34840 ft 501 kts 163°
2026-05-05 14:53 22.53050 -6.38764 34841 ft 501 kts 163°
2026-05-05 14:54 22.46782 -6.35555 34839 ft 502 kts 163°
2026-05-05 14:54 22.40462 -6.32323 34839 ft 502 kts 163°
2026-05-05 14:55 22.34140 -6.29092 34840 ft 503 kts 163°
2026-05-05 14:55 22.27823 -6.25867 34835 ft 502 kts 163°
2026-05-05 14:56 22.21503 -6.22645 34840 ft 502 kts 163°
2026-05-05 14:56 22.15227 -6.19447 34843 ft 502 kts 163°
2026-05-05 14:57 22.08909 -6.16232 34843 ft 502 kts 163°
2026-05-05 14:57 22.02587 -6.13016 34845 ft 502 kts 163°
2026-05-05 14:58 21.96260 -6.09805 34836 ft 504 kts 163°
2026-05-05 14:58 21.89943 -6.06606 34850 ft 507 kts 163°
2026-05-05 14:59 21.83549 -6.03370 34843 ft 509 kts 163°
2026-05-05 14:59 21.77126 -6.00118 34842 ft 511 kts 163°
2026-05-05 15:00 21.71886 -5.97467 34837 ft 511 kts 163°
2026-05-05 15:00 21.64371 -5.93668 34826 ft 510 kts 163°
2026-05-05 15:01 21.57994 -5.90449 34825 ft 509 kts 163°
2026-05-05 15:01 21.51592 -5.87221 34825 ft 508 kts 163°
2026-05-05 15:02 21.45199 -5.84001 34827 ft 507 kts 163°
2026-05-05 15:02 21.38813 -5.80789 34831 ft 507 kts 163°
2026-05-05 15:03 21.32428 -5.77580 34827 ft 506 kts 163°
2026-05-05 15:03 21.26089 -5.74397 34823 ft 507 kts 163°
2026-05-05 15:04 21.19707 -5.71195 34822 ft 507 kts 163°
2026-05-05 15:04 21.13322 -5.67995 34824 ft 506 kts 163°
2026-05-05 15:05 21.03795 -5.63225 34797 ft 506 kts 162°
2026-05-05 15:06 20.97419 -5.60036 34824 ft 507 kts 163°
2026-05-05 15:06 20.91021 -5.56841 34828 ft 508 kts 162°
2026-05-05 15:07 20.84613 -5.53642 34820 ft 509 kts 162°
2026-05-05 15:07 20.78204 -5.50445 34827 ft 510 kts 162°
2026-05-05 15:08 20.71820 -5.47263 34803 ft 510 kts 162°
2026-05-05 15:08 20.65383 -5.44060 34816 ft 510 kts 162°
2026-05-05 15:09 20.58943 -5.40856 34825 ft 510 kts 162°
2026-05-05 15:09 20.52504 -5.37655 34827 ft 511 kts 162°
2026-05-05 15:10 20.46108 -5.34478 34824 ft 511 kts 162°
2026-05-05 15:10 20.39668 -5.31281 34819 ft 511 kts 162°
2026-05-05 15:11 20.33223 -5.28086 34821 ft 511 kts 162°
2026-05-05 15:11 20.26766 -5.24888 34828 ft 512 kts 162°
2026-05-05 15:12 20.20343 -5.21709 34824 ft 513 kts 162°
2026-05-05 15:12 20.13868 -5.18507 34827 ft 513 kts 162°
2026-05-05 15:13 20.07383 -5.15304 34826 ft 514 kts 162°
2026-05-05 15:13 20.00898 -5.12103 34818 ft 514 kts 162°
2026-05-05 15:14 19.94417 -5.08907 34831 ft 514 kts 162°
2026-05-05 15:14 19.87971 -5.05731 34828 ft 514 kts 162°
2026-05-05 15:15 19.81474 -5.02534 34826 ft 514 kts 162°
2026-05-05 15:15 19.75095 -4.99396 34824 ft 514 kts 162°
2026-05-05 15:16 19.68596 -4.96203 34830 ft 515 kts 162°
2026-05-05 15:16 19.62135 -4.93032 34822 ft 516 kts 162°
2026-05-05 15:17 19.55610 -4.89831 34828 ft 517 kts 162°
2026-05-05 15:17 19.49070 -4.86626 34828 ft 518 kts 162°
2026-05-05 15:18 19.42520 -4.83418 34829 ft 519 kts 162°
2026-05-05 15:18 19.35964 -4.80211 34814 ft 519 kts 162°
2026-05-05 15:19 19.29454 -4.77032 34824 ft 519 kts 162°
2026-05-05 15:19 19.22898 -4.73833 34820 ft 519 kts 162°
2026-05-05 15:20 19.16338 -4.70634 34814 ft 519 kts 162°
2026-05-05 15:20 19.09776 -4.67435 34821 ft 519 kts 162°
2026-05-05 15:21 19.03217 -4.64241 34799 ft 519 kts 161°
2026-05-05 15:21 18.96712 -4.61076 34810 ft 518 kts 161°
2026-05-05 15:22 18.90159 -4.57891 34817 ft 518 kts 161°
2026-05-05 15:22 18.83605 -4.54708 34816 ft 519 kts 161°
2026-05-05 15:23 18.77044 -4.51525 34822 ft 519 kts 161°
2026-05-05 15:23 18.70519 -4.48361 34805 ft 519 kts 161°
2026-05-05 15:24 18.63953 -4.45180 34815 ft 519 kts 161°
2026-05-05 15:24 18.57386 -4.42001 34810 ft 520 kts 161°
2026-05-05 15:25 18.50812 -4.38822 34807 ft 520 kts 161°
2026-05-05 15:25 18.44241 -4.35647 34808 ft 520 kts 161°
2026-05-05 15:26 18.37711 -4.32494 34802 ft 520 kts 161°
2026-05-05 15:26 18.31138 -4.29324 34804 ft 520 kts 161°
2026-05-05 15:27 18.24565 -4.26156 34804 ft 520 kts 161°
2026-05-05 15:27 18.17986 -4.22987 34805 ft 520 kts 161°
2026-05-05 15:28 18.11445 -4.19840 34804 ft 520 kts 161°
2026-05-05 15:28 18.04858 -4.16673 34797 ft 521 kts 161°
2026-05-05 15:29 17.98280 -4.13513 34800 ft 521 kts 161°
2026-05-05 15:29 17.91691 -4.10351 34794 ft 521 kts 161°
2026-05-05 15:30 17.85105 -4.07193 34795 ft 521 kts 161°
2026-05-05 15:30 17.78556 -4.04054 34793 ft 521 kts 161°
2026-05-05 15:31 17.71968 -4.00899 34792 ft 520 kts 161°
2026-05-05 15:31 17.65485 -3.97798 34783 ft 521 kts 161°
2026-05-05 15:32 17.58894 -3.94647 34790 ft 521 kts 161°
2026-05-05 15:32 17.52339 -3.91516 34790 ft 521 kts 161°
2026-05-05 15:33 17.45734 -3.88364 34792 ft 522 kts 161°
2026-05-05 15:33 17.39127 -3.85213 34784 ft 522 kts 161°
2026-05-05 15:34 17.32513 -3.82061 34782 ft 522 kts 161°
2026-05-05 15:34 17.25947 -3.78934 34779 ft 522 kts 161°
2026-05-05 15:35 17.19343 -3.75792 34780 ft 521 kts 161°
2026-05-05 15:35 17.12739 -3.72652 34773 ft 521 kts 161°
2026-05-05 15:36 17.06140 -3.69518 34777 ft 521 kts 161°
2026-05-05 15:36 16.99591 -3.66409 34764 ft 521 kts 161°
2026-05-05 15:37 16.92995 -3.63281 34770 ft 521 kts 161°
2026-05-05 15:37 16.86397 -3.60154 34773 ft 521 kts 161°
2026-05-05 15:38 16.79791 -3.57026 34774 ft 521 kts 161°
2026-05-05 15:38 16.73183 -3.53899 34768 ft 521 kts 161°
2026-05-05 15:39 16.66623 -3.50797 34745 ft 521 kts 160°
2026-05-05 15:39 16.60016 -3.47675 34768 ft 521 kts 160°
2026-05-05 15:40 16.53410 -3.44556 34762 ft 521 kts 160°
2026-05-05 15:40 16.46800 -3.41436 34763 ft 522 kts 160°
2026-05-05 15:41 16.40188 -3.38319 34760 ft 522 kts 160°
2026-05-05 15:41 16.33614 -3.35224 34762 ft 522 kts 160°
2026-05-05 15:42 16.26995 -3.32110 34751 ft 522 kts 160°
2026-05-05 15:42 16.20372 -3.28995 34755 ft 522 kts 160°
2026-05-05 15:43 16.13752 -3.25883 34748 ft 522 kts 160°
2026-05-05 15:43 16.07127 -3.22772 34752 ft 522 kts 160°
2026-05-05 15:44 16.00547 -3.19683 34745 ft 522 kts 160°
2026-05-05 15:44 15.93929 -3.16580 34739 ft 522 kts 160°
2026-05-05 15:45 15.87301 -3.13473 34744 ft 522 kts 160°
2026-05-05 15:45 15.80680 -3.10373 34744 ft 522 kts 160°
2026-05-05 15:46 15.74105 -3.07295 34746 ft 522 kts 160°
2026-05-05 15:46 15.67485 -3.04200 34738 ft 522 kts 160°
2026-05-05 15:47 15.60861 -3.01104 34733 ft 522 kts 160°
2026-05-05 15:47 15.54355 -2.98065 34739 ft 522 kts 160°
2026-05-05 15:48 15.47777 -2.94996 34742 ft 522 kts 160°
2026-05-05 15:48 15.41157 -2.91909 34743 ft 522 kts 160°
2026-05-05 15:49 15.34534 -2.88822 34745 ft 522 kts 160°
2026-05-05 15:49 15.27916 -2.85740 34748 ft 522 kts 160°
2026-05-05 15:50 15.21296 -2.82658 34744 ft 522 kts 160°
2026-05-05 15:50 15.14718 -2.79599 34752 ft 522 kts 160°
2026-05-05 15:51 15.08095 -2.76520 34746 ft 522 kts 160°
2026-05-05 15:51 15.01472 -2.73451 34749 ft 522 kts 160°
2026-05-05 15:52 14.94851 -2.70387 34744 ft 522 kts 160°
2026-05-05 15:52 14.88276 -2.67344 34737 ft 521 kts 159°
2026-05-05 15:53 14.81663 -2.64284 34737 ft 520 kts 159°
2026-05-05 15:53 14.75054 -2.61229 34738 ft 520 kts 159°
2026-05-05 15:54 14.68453 -2.58179 34740 ft 519 kts 159°
2026-05-05 15:54 14.61902 -2.55154 34743 ft 519 kts 159°
2026-05-05 15:55 14.55309 -2.52112 34740 ft 519 kts 159°
2026-05-05 15:55 14.48718 -2.49073 34743 ft 519 kts 159°
2026-05-05 15:56 14.42123 -2.46033 34742 ft 519 kts 159°
2026-05-05 15:56 14.35521 -2.42994 34741 ft 520 kts 159°
2026-05-05 15:57 14.28963 -2.39977 34749 ft 520 kts 159°
2026-05-05 15:57 14.22359 -2.36940 34750 ft 520 kts 159°
2026-05-05 15:58 14.15748 -2.33902 34743 ft 520 kts 159°
2026-05-05 15:58 14.09147 -2.30869 34746 ft 519 kts 159°
2026-05-05 15:59 14.02595 -2.27860 34748 ft 519 kts 159°
2026-05-05 15:59 13.96000 -2.24834 34752 ft 519 kts 159°
2026-05-05 16:00 13.89399 -2.21808 34753 ft 520 kts 159°
2026-05-05 16:00 13.82793 -2.18781 34751 ft 520 kts 159°
2026-05-05 16:01 13.76235 -2.15778 34764 ft 519 kts 159°
2026-05-05 16:01 13.69634 -2.12756 34757 ft 519 kts 159°
2026-05-05 16:02 13.63039 -2.09739 34760 ft 518 kts 159°
2026-05-05 16:02 13.56448 -2.06726 34763 ft 518 kts 159°
2026-05-05 16:03 13.49860 -2.03717 34760 ft 518 kts 159°
2026-05-05 16:03 13.43324 -2.00733 34769 ft 517 kts 158°
2026-05-05 16:04 13.36863 -1.97784 34762 ft 516 kts 158°
2026-05-05 16:04 13.30304 -1.94793 34767 ft 515 kts 158°
2026-05-05 16:05 13.23758 -1.91809 34768 ft 515 kts 158°
2026-05-05 16:05 13.17254 -1.88846 34779 ft 515 kts 158°
2026-05-05 16:06 13.10707 -1.85865 34775 ft 515 kts 158°
2026-05-05 16:06 13.04167 -1.82888 34798 ft 514 kts 158°
2026-05-05 16:07 12.97638 -1.79915 34796 ft 514 kts 158°
2026-05-05 16:07 12.91109 -1.76944 34796 ft 513 kts 158°
2026-05-05 16:08 12.84622 -1.73994 34812 ft 513 kts 158°
2026-05-05 16:08 12.78100 -1.71030 34809 ft 513 kts 158°
2026-05-05 16:09 12.71576 -1.68067 34820 ft 512 kts 157°
2026-05-05 16:09 12.65060 -1.65109 34827 ft 512 kts 157°
2026-05-05 16:10 12.58587 -1.62172 34843 ft 512 kts 157°
2026-05-05 16:10 12.52074 -1.59219 34853 ft 512 kts 157°
2026-05-05 16:11 12.45566 -1.56269 34858 ft 512 kts 157°
2026-05-05 16:12 12.32588 -1.50386 34856 ft 512 kts 157°
2026-05-05 16:13 12.16361 -1.42894 34854 ft 512 kts 156°
2026-05-05 16:13 12.09913 -1.39919 34854 ft 512 kts 156°
2026-05-05 16:14 11.96937 -1.33946 34855 ft 512 kts 156°
2026-05-05 16:15 11.83951 -1.27972 34850 ft 512 kts 156°
2026-05-05 16:16 11.71015 -1.22028 34847 ft 512 kts 156°
2026-05-05 16:17 11.61277 -1.17558 34848 ft 511 kts 156°
2026-05-05 16:18 11.51593 -1.13116 34847 ft 511 kts 156°
2026-05-05 16:19 11.41867 -1.08657 34846 ft 511 kts 156°
2026-05-05 16:19 11.32138 -1.04201 34839 ft 511 kts 156°
2026-05-05 16:20 11.19326 -0.98337 34840 ft 511 kts 156°
2026-05-05 16:22 11.03115 -0.90924 34831 ft 511 kts 156°
2026-05-05 16:23 10.90395 -0.84616 34836 ft 511 kts 152°
2026-05-05 16:23 10.80950 -0.79593 34833 ft 511 kts 153°
2026-05-05 16:24 10.74670 -0.76316 34830 ft 511 kts 153°
2026-05-05 16:25 10.65173 -0.71389 34829 ft 511 kts 153°
2026-05-05 16:25 10.55672 -0.66457 34829 ft 511 kts 153°
2026-05-05 16:26 10.43047 -0.59906 34825 ft 511 kts 153°
2026-05-05 16:27 10.36720 -0.56625 34824 ft 511 kts 153°
2026-05-05 16:27 10.30390 -0.53344 34826 ft 511 kts 153°
2026-05-05 16:28 10.24064 -0.50066 34822 ft 511 kts 153°
2026-05-05 16:28 10.17776 -0.46809 34824 ft 510 kts 153°
2026-05-05 16:29 10.11453 -0.43536 34812 ft 510 kts 153°
2026-05-05 16:29 10.05066 -0.40401 34813 ft 510 kts 155°
2026-05-05 16:30 9.98637 -0.37398 34816 ft 509 kts 155°
2026-05-05 16:30 9.92259 -0.34373 34814 ft 509 kts 154°
2026-05-05 16:31 9.85845 -0.31312 34814 ft 509 kts 154°
2026-05-05 16:31 9.79433 -0.28254 34816 ft 509 kts 154°
2026-05-05 16:32 9.73023 -0.25198 34810 ft 509 kts 154°
2026-05-05 16:32 9.66615 -0.22144 34817 ft 509 kts 154°
2026-05-05 16:33 9.60253 -0.19113 34816 ft 509 kts 154°
2026-05-05 16:33 9.53849 -0.16063 34816 ft 508 kts 154°
2026-05-05 16:34 9.47445 -0.13022 34813 ft 508 kts 154°
2026-05-05 16:34 9.41038 -0.09987 34813 ft 508 kts 154°
2026-05-05 16:35 9.34677 -0.06972 34816 ft 508 kts 154°
2026-05-05 16:35 9.28279 -0.03939 34818 ft 508 kts 154°
2026-05-05 16:36 9.21884 -0.00909 34821 ft 508 kts 154°
2026-05-05 16:36 9.15609 0.02072 34820 ft 508 kts 154°
2026-05-05 16:37 9.09258 0.05095 34819 ft 508 kts 154°
2026-05-05 16:37 9.02868 0.08136 34825 ft 508 kts 154°
2026-05-05 16:38 8.96480 0.11173 34824 ft 508 kts 154°
2026-05-05 16:38 8.90081 0.14215 34828 ft 508 kts 154°
2026-05-05 16:39 8.83680 0.17255 34828 ft 508 kts 154°
2026-05-05 16:39 8.77324 0.20274 34833 ft 508 kts 154°
2026-05-05 16:40 8.70924 0.23312 34835 ft 508 kts 154°
2026-05-05 16:40 8.64524 0.26349 34832 ft 508 kts 154°
2026-05-05 16:41 8.58124 0.29385 34836 ft 508 kts 154°
2026-05-05 16:41 8.51768 0.32398 34840 ft 508 kts 154°
2026-05-05 16:42 8.45368 0.35432 34844 ft 508 kts 154°
2026-05-05 16:42 8.38971 0.38464 34849 ft 508 kts 154°
2026-05-05 16:43 8.32613 0.41475 34857 ft 508 kts 154°
2026-05-05 16:43 8.26217 0.44504 34852 ft 508 kts 154°
2026-05-05 16:44 8.19819 0.47532 34863 ft 508 kts 154°
2026-05-05 16:44 8.13428 0.50557 34871 ft 507 kts 154°
2026-05-05 16:45 8.07035 0.53582 34866 ft 507 kts 154°
2026-05-05 16:45 8.00766 0.56712 34874 ft 506 kts 148°
2026-05-05 16:46 7.94951 0.60665 34877 ft 504 kts 143°
2026-05-05 16:46 7.89233 0.64750 34887 ft 504 kts 143°
2026-05-05 16:47 7.83500 0.68813 34882 ft 504 kts 143°
2026-05-05 16:47 7.77784 0.72826 34888 ft 504 kts 143°
2026-05-05 16:48 7.72026 0.76856 34895 ft 504 kts 144°
2026-05-05 16:48 7.66267 0.80886 34891 ft 504 kts 144°
2026-05-05 16:49 7.60508 0.84916 34888 ft 504 kts 144°
2026-05-05 16:49 7.54786 0.88920 34874 ft 503 kts 143°
2026-05-05 16:50 7.49041 0.92939 34877 ft 503 kts 143°
2026-05-05 16:50 7.43294 0.96958 34874 ft 503 kts 144°
2026-05-05 16:51 7.37658 1.00898 34879 ft 502 kts 143°
2026-05-05 16:51 7.31954 1.04884 34877 ft 502 kts 144°
2026-05-05 16:52 7.26211 1.08896 34859 ft 502 kts 144°
2026-05-05 16:52 7.20470 1.12906 34860 ft 502 kts 144°
2026-05-05 16:53 7.14728 1.16914 34862 ft 502 kts 143°
2026-05-05 16:53 7.09024 1.20896 34863 ft 502 kts 143°
2026-05-05 16:54 7.03278 1.24905 34854 ft 503 kts 143°
2026-05-05 16:54 6.97537 1.28910 34855 ft 503 kts 143°
2026-05-05 16:55 6.91785 1.32921 34855 ft 503 kts 143°
2026-05-05 16:55 6.86075 1.36901 34855 ft 503 kts 143°
2026-05-05 16:56 6.80329 1.40906 34862 ft 503 kts 143°
2026-05-05 16:56 6.74581 1.44911 34856 ft 502 kts 143°
2026-05-05 16:57 6.68838 1.48911 34864 ft 502 kts 143°
2026-05-05 16:57 6.63132 1.52884 34850 ft 502 kts 143°
2026-05-05 16:58 6.57398 1.56876 34855 ft 501 kts 143°
2026-05-05 16:58 6.51662 1.60867 34858 ft 501 kts 143°
2026-05-05 16:59 6.45929 1.64856 34855 ft 501 kts 143°
2026-05-05 16:59 6.40228 1.68822 34855 ft 501 kts 143°
2026-05-05 17:00 6.34533 1.72783 34858 ft 501 kts 143°
2026-05-05 17:00 6.28803 1.76767 34858 ft 501 kts 143°
2026-05-05 17:01 6.23102 1.80799 34857 ft 501 kts 142°
2026-05-05 17:01 6.17499 1.84953 34855 ft 500 kts 141°
2026-05-05 17:02 6.11944 1.89095 34856 ft 500 kts 142°
2026-05-05 17:02 6.06340 1.93246 34859 ft 500 kts 142°
2026-05-05 17:03 6.00732 1.97383 34855 ft 500 kts 142°
2026-05-05 17:03 5.95223 2.01442 34854 ft 500 kts 142°
2026-05-05 17:04 5.89620 2.05570 34857 ft 499 kts 142°
2026-05-05 17:04 5.84059 2.09668 34857 ft 499 kts 142°
2026-05-05 17:05 5.78461 2.13793 34858 ft 499 kts 142°
2026-05-05 17:05 5.72860 2.17918 34858 ft 499 kts 142°
2026-05-05 17:06 5.67260 2.22042 34856 ft 500 kts 142°
2026-05-05 17:06 5.61691 2.26142 34859 ft 500 kts 142°
2026-05-05 17:07 5.56075 2.30276 34858 ft 501 kts 142°
2026-05-05 17:07 5.50457 2.34408 34858 ft 501 kts 142°
2026-05-05 17:08 5.44838 2.38541 34857 ft 501 kts 142°
2026-05-05 17:08 5.39259 2.42646 34857 ft 500 kts 142°
2026-05-05 17:09 5.33645 2.46773 34858 ft 500 kts 142°
2026-05-05 17:09 5.28037 2.50897 34855 ft 500 kts 142°
2026-05-05 17:10 5.22425 2.55022 34859 ft 500 kts 142°
2026-05-05 17:10 5.16845 2.59123 34862 ft 501 kts 142°
2026-05-05 17:11 5.11219 2.63255 34862 ft 502 kts 142°
2026-05-05 17:11 5.05588 2.67389 34860 ft 502 kts 142°
2026-05-05 17:12 4.99963 2.71523 34865 ft 501 kts 142°
2026-05-05 17:12 4.94336 2.75654 34868 ft 501 kts 142°
2026-05-05 17:13 4.88897 2.79934 34868 ft 500 kts 136°
2026-05-05 17:13 4.84202 2.85052 34869 ft 498 kts 129°
2026-05-05 17:14 4.79731 2.90364 34866 ft 499 kts 129°
2026-05-05 17:14 4.75999 2.94771 34867 ft 499 kts 130°
2026-05-05 17:15 4.70834 3.00814 34867 ft 499 kts 129°
2026-05-05 17:15 4.66306 3.06090 34868 ft 499 kts 129°
2026-05-05 17:16 4.62543 3.10475 34866 ft 499 kts 129°
2026-05-05 17:16 4.58015 3.15753 34876 ft 501 kts 129°
2026-05-05 17:17 4.55742 3.18402 35081 ft 502 kts 129°
2026-05-05 17:17 4.52733 3.21910 35485 ft 499 kts 129°
2026-05-05 17:17 4.50479 3.24536 35921 ft 495 kts 129°
2026-05-05 17:17 4.48236 3.27149 36218 ft 494 kts 129°
2026-05-05 17:18 4.46751 3.28879 36373 ft 495 kts 129°
2026-05-05 17:18 4.44505 3.31497 36617 ft 495 kts 129°
2026-05-05 17:18 4.42265 3.34106 36812 ft 495 kts 129°
2026-05-05 17:18 4.40014 3.36729 36843 ft 496 kts 130°
2026-05-05 17:19 4.35526 3.41954 36854 ft 493 kts 129°
2026-05-05 17:19 4.31067 3.47146 36862 ft 490 kts 129°
2026-05-05 17:20 4.26663 3.52273 36863 ft 488 kts 130°
2026-05-05 17:20 4.22233 3.57430 36869 ft 488 kts 129°
2026-05-05 17:21 4.17799 3.62591 36872 ft 489 kts 129°
2026-05-05 17:22 4.11155 3.70321 36870 ft 491 kts 129°
2026-05-05 17:22 4.06694 3.75512 36871 ft 492 kts 129°
2026-05-05 17:23 4.02219 3.80719 36871 ft 493 kts 129°
2026-05-05 17:23 3.97558 3.85744 36870 ft 494 kts 135°
2026-05-05 17:24 3.92597 3.90455 36870 ft 495 kts 135°
2026-05-05 17:24 3.87584 3.95176 36869 ft 495 kts 135°
2026-05-05 17:25 3.82587 3.99918 36869 ft 495 kts 135°
2026-05-05 17:25 3.77687 4.04593 36868 ft 495 kts 135°
2026-05-05 17:26 3.72713 4.09345 36869 ft 494 kts 135°
2026-05-05 17:26 3.67779 4.14056 36864 ft 493 kts 135°
2026-05-05 17:27 3.62815 4.18793 36865 ft 493 kts 135°
2026-05-05 17:27 3.57855 4.23525 36862 ft 492 kts 135°
2026-05-05 17:28 3.52897 4.28254 36868 ft 492 kts 135°
2026-05-05 17:28 3.47977 4.32947 36867 ft 492 kts 135°
2026-05-05 17:29 3.43023 4.37672 36867 ft 492 kts 135°
2026-05-05 17:29 3.38069 4.42395 36867 ft 492 kts 135°
2026-05-05 17:30 3.33112 4.47120 36870 ft 492 kts 135°
2026-05-05 17:30 3.28155 4.51846 36872 ft 492 kts 135°
2026-05-05 17:31 3.23228 4.56542 36870 ft 492 kts 135°
2026-05-05 17:31 3.18267 4.61268 36872 ft 492 kts 134°
2026-05-05 17:32 3.13308 4.65994 36869 ft 492 kts 134°
2026-05-05 17:32 3.08347 4.70720 36871 ft 492 kts 135°
2026-05-05 17:33 3.03421 4.75412 36871 ft 492 kts 134°
2026-05-05 17:33 2.98466 4.80131 36868 ft 492 kts 134°
2026-05-05 17:34 2.93505 4.84856 36867 ft 492 kts 134°
2026-05-05 17:34 2.88544 4.89579 36872 ft 492 kts 134°
2026-05-05 17:35 2.83580 4.94305 36874 ft 493 kts 134°
2026-05-05 17:35 2.78652 4.98996 36876 ft 492 kts 135°
2026-05-05 17:36 2.73791 5.03623 36866 ft 491 kts 135°
2026-05-05 17:36 2.68849 5.08325 36870 ft 490 kts 135°
2026-05-05 17:37 2.63919 5.13016 36871 ft 489 kts 134°
2026-05-05 17:37 2.59031 5.17668 36871 ft 488 kts 134°
2026-05-05 17:38 2.54116 5.22344 36874 ft 488 kts 134°
2026-05-05 17:38 2.49198 5.27022 36874 ft 488 kts 134°
2026-05-05 17:39 2.44280 5.31700 36875 ft 488 kts 134°
2026-05-05 17:39 2.39363 5.36377 36874 ft 488 kts 135°
2026-05-05 17:40 2.34448 5.41050 36874 ft 487 kts 135°
2026-05-05 17:40 2.29572 5.45687 36871 ft 487 kts 135°
2026-05-05 17:41 2.24662 5.50355 36873 ft 487 kts 135°
2026-05-05 17:41 2.19748 5.55028 36875 ft 487 kts 135°
2026-05-05 17:42 2.14869 5.59665 36874 ft 487 kts 135°
2026-05-05 17:42 2.09952 5.64339 36877 ft 488 kts 135°
2026-05-05 17:43 2.05035 5.69013 36874 ft 488 kts 135°
2026-05-05 17:43 2.00117 5.73687 36884 ft 487 kts 135°
2026-05-05 17:44 1.95210 5.78349 36873 ft 487 kts 135°
2026-05-05 17:44 1.90336 5.82981 36877 ft 486 kts 135°
2026-05-05 17:45 1.85435 5.87638 36877 ft 486 kts 135°
2026-05-05 17:45 1.80532 5.92297 36875 ft 486 kts 135°
2026-05-05 17:46 1.75629 5.96956 36877 ft 486 kts 135°
2026-05-05 17:46 1.70504 6.01131 36885 ft 489 kts 144°
2026-05-05 17:47 1.64580 6.04483 36879 ft 490 kts 151°
2026-05-05 17:47 1.58511 6.07611 36879 ft 491 kts 150°
2026-05-05 17:48 1.52463 6.10792 36880 ft 491 kts 150°
2026-05-05 17:48 1.46436 6.13991 36879 ft 490 kts 150°
2026-05-05 17:49 1.40453 6.17168 36881 ft 490 kts 150°
2026-05-05 17:49 1.34438 6.20363 36877 ft 489 kts 150°
2026-05-05 17:50 1.28431 6.23555 36881 ft 489 kts 150°
2026-05-05 17:50 1.22423 6.26748 36880 ft 489 kts 150°
2026-05-05 17:51 1.16461 6.29915 36882 ft 489 kts 150°
2026-05-05 17:51 1.10459 6.33104 36882 ft 489 kts 150°
2026-05-05 17:52 1.04448 6.36297 36881 ft 489 kts 150°
2026-05-05 17:52 0.98440 6.39489 36881 ft 490 kts 150°
2026-05-05 17:53 0.92457 6.42667 36880 ft 491 kts 150°
2026-05-05 17:53 0.86423 6.45872 36881 ft 491 kts 150°
2026-05-05 17:54 0.80395 6.49074 36884 ft 491 kts 150°
2026-05-05 17:54 0.74367 6.52276 36876 ft 490 kts 150°
2026-05-05 17:55 0.68340 6.55477 36877 ft 490 kts 150°
2026-05-05 17:55 0.62357 6.58655 36876 ft 490 kts 150°
2026-05-05 17:56 0.56329 6.61856 36869 ft 491 kts 150°
2026-05-05 17:56 0.50294 6.65062 36866 ft 491 kts 150°
2026-05-05 17:57 0.44260 6.68268 36860 ft 492 kts 150°
2026-05-05 17:57 0.38227 6.71495 36858 ft 491 kts 148°
2026-05-05 17:58 0.32590 6.75251 36860 ft 491 kts 143°
2026-05-05 17:58 0.27030 6.79236 36867 ft 493 kts 143°
2026-05-05 17:59 0.21446 6.83220 36874 ft 494 kts 143°
2026-05-05 17:59 0.15833 6.87187 36880 ft 494 kts 143°
2026-05-05 18:00 0.10225 6.91138 36879 ft 493 kts 143°
2026-05-05 18:00 0.04667 6.95053 36883 ft 491 kts 143°
2026-05-05 18:01 -0.00901 6.98978 36887 ft 490 kts 143°
2026-05-05 18:01 -0.06385 7.02845 36883 ft 491 kts 143°
2026-05-05 18:02 -0.11972 7.06784 36893 ft 493 kts 143°
2026-05-05 18:02 -0.17546 7.10714 36887 ft 494 kts 143°
2026-05-05 18:03 -0.23178 7.14684 36887 ft 496 kts 143°
2026-05-05 18:03 -0.28820 7.18663 36885 ft 497 kts 143°
2026-05-05 18:04 -0.34472 7.22649 36889 ft 497 kts 143°
2026-05-05 18:04 -0.40085 7.26607 36887 ft 497 kts 143°
2026-05-05 18:05 -0.45732 7.30594 36888 ft 496 kts 143°
2026-05-05 18:05 -0.51361 7.34586 36891 ft 496 kts 143°
2026-05-05 18:06 -0.56976 7.38570 36890 ft 495 kts 143°
2026-05-05 18:06 -0.62553 7.42525 36889 ft 495 kts 143°
2026-05-05 18:07 -0.68161 7.46502 36886 ft 494 kts 143°
2026-05-05 18:07 -0.73775 7.50467 36891 ft 494 kts 144°
2026-05-05 18:08 -0.79421 7.54383 36887 ft 495 kts 144°
2026-05-05 18:08 -0.85075 7.58328 36898 ft 496 kts 144°
2026-05-05 18:09 -0.90685 7.62285 36896 ft 497 kts 143°
2026-05-05 18:09 -0.96345 7.66277 36894 ft 498 kts 143°
2026-05-05 18:10 -1.02012 7.70266 36892 ft 499 kts 143°
2026-05-05 18:10 -1.07673 7.74267 36895 ft 499 kts 143°
2026-05-05 18:11 -1.13295 7.78253 36888 ft 498 kts 143°
2026-05-05 18:11 -1.18942 7.82256 36889 ft 498 kts 143°
2026-05-05 18:12 -1.24590 7.86259 36895 ft 497 kts 143°
2026-05-05 18:12 -1.30233 7.90258 36893 ft 497 kts 143°
2026-05-05 18:13 -1.35872 7.94251 36892 ft 497 kts 143°
2026-05-05 18:13 -1.41482 7.98201 36890 ft 497 kts 143°
2026-05-05 18:14 -1.47042 8.02112 36896 ft 496 kts 143°
2026-05-05 18:14 -1.52688 8.06089 36894 ft 497 kts 143°
2026-05-05 18:15 -1.58334 8.10068 36894 ft 497 kts 143°
2026-05-05 18:15 -1.63981 8.14050 36899 ft 497 kts 144°
2026-05-05 18:16 -1.69590 8.17999 36893 ft 496 kts 144°
2026-05-05 18:16 -1.75229 8.21972 36895 ft 496 kts 144°
2026-05-05 18:17 -1.80868 8.25946 36896 ft 495 kts 144°
2026-05-05 18:17 -1.86497 8.29914 36899 ft 495 kts 144°
2026-05-05 18:18 -1.92125 8.33883 36896 ft 495 kts 144°
2026-05-05 18:18 -1.97716 8.37827 36902 ft 495 kts 144°
2026-05-05 18:19 -2.03342 8.41795 36897 ft 495 kts 144°
2026-05-05 18:19 -2.08976 8.45768 36902 ft 496 kts 144°
2026-05-05 18:20 -2.14616 8.49748 36902 ft 496 kts 144°
2026-05-05 18:20 -2.20216 8.53702 36906 ft 496 kts 144°
2026-05-05 18:21 -2.25862 8.57689 36903 ft 497 kts 144°
2026-05-05 18:21 -2.31503 8.61673 36901 ft 497 kts 144°
2026-05-05 18:22 -2.37146 8.65659 36900 ft 496 kts 144°
2026-05-05 18:22 -2.42788 8.69644 36899 ft 496 kts 144°
2026-05-05 18:23 -2.48384 8.73598 36898 ft 496 kts 144°
2026-05-05 18:23 -2.54022 8.77581 36903 ft 496 kts 144°
2026-05-05 18:24 -2.59662 8.81567 36900 ft 497 kts 144°
2026-05-05 18:24 -2.65272 8.85532 36908 ft 497 kts 144°
2026-05-05 18:25 -2.70918 8.89524 36902 ft 497 kts 144°
2026-05-05 18:25 -2.76561 8.93513 36903 ft 497 kts 144°
2026-05-05 18:26 -2.82205 8.97503 36905 ft 497 kts 144°
2026-05-05 18:26 -2.87757 9.01425 36905 ft 496 kts 144°
2026-05-05 18:27 -2.93359 9.05383 36905 ft 496 kts 144°
2026-05-05 18:27 -2.98998 9.09369 36908 ft 496 kts 144°
2026-05-05 18:28 -3.07453 9.15347 36909 ft 497 kts 144°
2026-05-05 18:28 -3.13098 9.19340 36910 ft 498 kts 143°
2026-05-05 18:29 -3.18805 9.23378 36908 ft 507 kts 143°
2026-05-05 18:29 -3.24557 9.27448 36910 ft 512 kts 143°
2026-05-05 18:30 -3.30395 9.31578 36908 ft 515 kts 143°
2026-05-05 18:30 -3.36247 9.35719 36916 ft 515 kts 144°
2026-05-05 18:31 -3.42095 9.39860 36904 ft 514 kts 144°
2026-05-05 18:31 -3.47876 9.43957 36907 ft 512 kts 144°
2026-05-05 18:32 -3.53673 9.48068 36904 ft 509 kts 144°
2026-05-05 18:32 -3.59446 9.52161 36907 ft 508 kts 144°
2026-05-05 18:33 -3.65208 9.56248 36910 ft 507 kts 144°
2026-05-05 18:33 -3.70965 9.60332 36910 ft 507 kts 144°
2026-05-05 18:34 -3.76680 9.64388 36918 ft 507 kts 144°
2026-05-05 18:34 -3.82441 9.68476 36911 ft 508 kts 144°
2026-05-05 18:35 -3.88212 9.72568 36919 ft 508 kts 144°
2026-05-05 18:35 -3.93988 9.76661 36912 ft 509 kts 144°
2026-05-05 18:36 -3.99768 9.80758 36910 ft 509 kts 144°
2026-05-05 18:36 -4.05490 9.84817 36918 ft 509 kts 143°
2026-05-05 18:37 -4.11264 9.88914 36913 ft 508 kts 143°
2026-05-05 18:37 -4.17025 9.93002 36919 ft 507 kts 143°
2026-05-05 18:38 -4.22778 9.97086 36913 ft 506 kts 143°
2026-05-05 18:38 -4.28396 10.01070 36913 ft 506 kts 143°
2026-05-05 18:39 -4.34137 10.05141 36914 ft 505 kts 143°
2026-05-05 18:39 -4.39875 10.09212 36916 ft 505 kts 143°
2026-05-05 18:40 -4.45614 10.13286 36918 ft 505 kts 143°
2026-05-05 18:40 -4.51352 10.17360 36920 ft 506 kts 143°
2026-05-05 18:41 -4.57055 10.21410 36915 ft 506 kts 143°
2026-05-05 18:41 -4.62806 10.25495 36920 ft 507 kts 143°
2026-05-05 18:42 -4.68564 10.29593 36916 ft 508 kts 143°
2026-05-05 18:42 -4.74322 10.33709 36916 ft 509 kts 143°
2026-05-05 18:43 -4.80051 10.37804 36916 ft 509 kts 143°
2026-05-05 18:43 -4.85822 10.41928 36915 ft 510 kts 143°
2026-05-05 18:44 -4.91610 10.46045 36917 ft 510 kts 143°
2026-05-05 18:44 -4.97408 10.50152 36920 ft 511 kts 143°
2026-05-05 18:45 -5.03207 10.54265 36917 ft 511 kts 143°
2026-05-05 18:45 -5.08976 10.58360 36929 ft 511 kts 143°
2026-05-05 18:46 -5.14775 10.62480 36918 ft 510 kts 143°
2026-05-05 18:46 -5.20554 10.66585 36919 ft 508 kts 143°
2026-05-05 18:47 -5.26314 10.70679 36921 ft 507 kts 143°
2026-05-05 18:47 -5.32027 10.74733 36921 ft 506 kts 143°
2026-05-05 18:48 -5.37786 10.78779 36922 ft 505 kts 144°
2026-05-05 18:48 -5.43546 10.82817 36924 ft 505 kts 143°
2026-05-05 18:49 -5.49302 10.86857 36927 ft 505 kts 143°
2026-05-05 18:49 -5.55057 10.90902 36930 ft 505 kts 143°
2026-05-05 18:50 -5.60777 10.94925 36923 ft 506 kts 143°
2026-05-05 18:50 -5.66536 10.98985 36929 ft 506 kts 142°
2026-05-05 18:51 -5.71792 11.03485 36922 ft 505 kts 136°
2026-05-05 18:51 -5.76977 11.08256 36939 ft 506 kts 136°
2026-05-05 18:52 -5.82140 11.12990 36918 ft 506 kts 136°
2026-05-05 18:52 -5.87363 11.17737 36925 ft 506 kts 136°
2026-05-05 18:53 -5.92594 11.22475 36922 ft 506 kts 136°
2026-05-05 18:53 -5.97826 11.27215 36931 ft 506 kts 136°
2026-05-05 18:54 -6.03050 11.31950 36929 ft 507 kts 136°
2026-05-05 18:54 -6.08248 11.36664 36939 ft 507 kts 136°
2026-05-05 18:55 -6.13483 11.41414 36933 ft 507 kts 136°
2026-05-05 18:55 -6.18727 11.46173 36938 ft 508 kts 136°
2026-05-05 18:56 -6.23972 11.50934 36934 ft 508 kts 137°
2026-05-05 18:56 -6.29188 11.55671 36935 ft 509 kts 136°
2026-05-05 18:57 -6.34438 11.60438 36929 ft 509 kts 136°
2026-05-05 18:57 -6.39682 11.65202 36932 ft 508 kts 137°
2026-05-05 18:58 -6.44922 11.69966 36930 ft 508 kts 137°
2026-05-05 18:58 -6.50163 11.74730 36932 ft 508 kts 136°
2026-05-05 18:59 -6.55370 11.79464 36955 ft 509 kts 137°
2026-05-05 18:59 -6.60623 11.84243 36941 ft 509 kts 137°
2026-05-05 19:00 -6.65883 11.89029 36953 ft 510 kts 137°
2026-05-05 19:00 -6.71151 11.93823 36952 ft 510 kts 137°
2026-05-05 19:01 -6.76385 11.98587 36939 ft 511 kts 137°
2026-05-05 19:01 -6.81576 12.03316 36935 ft 516 kts 137°
2026-05-05 19:02 -6.86917 12.08181 36934 ft 520 kts 137°
2026-05-05 19:02 -6.92299 12.13085 36956 ft 523 kts 137°
2026-05-05 19:03 -6.97691 12.18000 36935 ft 523 kts 137°
2026-05-05 19:03 -7.03039 12.22877 36926 ft 523 kts 137°
2026-05-05 19:04 -7.08420 12.27785 36942 ft 521 kts 137°
2026-05-05 19:04 -7.13775 12.32671 36930 ft 519 kts 137°
2026-05-05 19:05 -7.19116 12.37546 36930 ft 518 kts 137°
2026-05-05 19:05 -7.24451 12.42417 36934 ft 517 kts 137°
2026-05-05 19:06 -7.29739 12.47247 36940 ft 516 kts 137°
2026-05-05 19:06 -7.35061 12.52109 36933 ft 517 kts 137°
2026-05-05 19:07 -7.39489 12.56157 36952 ft 517 kts 137°
2026-05-05 19:07 -7.45714 12.61847 36932 ft 517 kts 137°
2026-05-05 19:08 -7.51007 12.66688 36953 ft 517 kts 137°
2026-05-05 19:08 -7.56338 12.71565 36934 ft 518 kts 137°
2026-05-05 19:09 -7.61640 12.76417 36878 ft 507 kts 137°
2026-05-05 19:09 -7.64254 12.78811 36089 ft 509 kts 138°
2026-05-05 19:09 -7.66865 12.81202 35340 ft 507 kts 138°
2026-05-05 19:10 -7.69482 12.83599 34446 ft 510 kts 138°
2026-05-05 19:10 -7.72115 12.86011 33478 ft 513 kts 139°
2026-05-05 19:10 -7.74727 12.88403 32466 ft 515 kts 138°
2026-05-05 19:10 -7.77378 12.90831 31475 ft 516 kts 138°
2026-05-05 19:11 -7.80038 12.93268 30499 ft 518 kts 138°
2026-05-05 19:11 -7.82688 12.95697 29790 ft 512 kts 138°
2026-05-05 19:11 -7.85313 12.98104 29023 ft 507 kts 138°
2026-05-05 19:11 -7.87818 13.00402 28364 ft 501 kts 138°
2026-05-05 19:12 -7.90384 13.02756 27699 ft 495 kts 138°
2026-05-05 19:12 -7.92912 13.05074 27070 ft 489 kts 138°
2026-05-05 19:12 -7.95384 13.07342 26441 ft 484 kts 138°
2026-05-05 19:12 -7.97863 13.09617 25827 ft 479 kts 138°
2026-05-05 19:13 -8.00315 13.11867 25195 ft 476 kts 138°
2026-05-05 19:13 -8.02754 13.14106 24573 ft 472 kts 138°
2026-05-05 19:13 -8.05176 13.16329 23956 ft 469 kts 138°
2026-05-05 19:13 -8.07579 13.18535 23296 ft 466 kts 137°
2026-05-05 19:14 -8.09967 13.20728 22615 ft 462 kts 137°
2026-05-05 19:14 -8.12331 13.22899 21990 ft 457 kts 137°
2026-05-05 19:14 -8.14674 13.25051 21397 ft 453 kts 137°
2026-05-05 19:14 -8.16959 13.27151 20805 ft 449 kts 137°
2026-05-05 19:15 -8.19256 13.29261 20211 ft 445 kts 137°
2026-05-05 19:15 -8.21533 13.31353 19640 ft 441 kts 137°
2026-05-05 19:15 -8.23797 13.33433 19062 ft 438 kts 137°
2026-05-05 19:15 -8.26044 13.35499 18471 ft 436 kts 137°
2026-05-05 19:16 -8.28278 13.37554 17817 ft 433 kts 137°
2026-05-05 19:16 -8.30494 13.39593 17211 ft 429 kts 137°
2026-05-05 19:16 -8.32692 13.41616 16620 ft 425 kts 137°
2026-05-05 19:16 -8.34868 13.43618 16046 ft 421 kts 137°
2026-05-05 19:17 -8.36994 13.45574 15485 ft 418 kts 137°
2026-05-05 19:17 -8.39130 13.47540 14913 ft 414 kts 137°
2026-05-05 19:17 -8.41253 13.49493 14359 ft 411 kts 137°
2026-05-05 19:17 -8.43355 13.51429 13813 ft 407 kts 137°
2026-05-05 19:18 -8.45443 13.53350 13274 ft 403 kts 137°
2026-05-05 19:18 -8.47506 13.55250 12710 ft 399 kts 137°
2026-05-05 19:18 -8.49551 13.57134 12098 ft 397 kts 137°
2026-05-05 19:18 -8.51580 13.59004 11546 ft 393 kts 137°
2026-05-05 19:19 -8.53588 13.60854 11135 ft 387 kts 137°
2026-05-05 19:19 -8.55466 13.62583 10944 ft 352 kts 137°
2026-05-05 19:19 -8.57189 13.64171 10790 ft 320 kts 137°
2026-05-05 19:19 -8.58763 13.65622 10659 ft 295 kts 137°
2026-05-05 19:20 -8.60252 13.66994 10544 ft 285 kts 137°
2026-05-05 19:20 -8.61691 13.68321 10440 ft 275 kts 137°
2026-05-05 19:20 -8.63083 13.69604 10324 ft 267 kts 137°
2026-05-05 19:20 -8.64436 13.70853 10211 ft 261 kts 137°
2026-05-05 19:21 -8.65774 13.72086 10118 ft 260 kts 137°
2026-05-05 19:21 -8.67102 13.73311 9906 ft 265 kts 137°
2026-05-05 19:21 -8.68472 13.74575 9601 ft 268 kts 137°
2026-05-05 19:21 -8.69845 13.75843 9271 ft 266 kts 138°
2026-05-05 19:22 -8.71207 13.77099 8970 ft 264 kts 138°
2026-05-05 19:22 -8.72553 13.78341 8718 ft 258 kts 138°
2026-05-05 19:22 -8.73855 13.79543 8584 ft 250 kts 138°
2026-05-05 19:22 -8.75138 13.80726 8294 ft 250 kts 138°
2026-05-05 19:23 -8.76459 13.81861 7987 ft 247 kts 150°
2026-05-05 19:23 -8.78084 13.82291 7669 ft 244 kts 187°
2026-05-05 19:23 -8.79611 13.81649 7414 ft 243 kts 219°
2026-05-05 19:23 -8.80853 13.80526 7167 ft 245 kts 221°
2026-05-05 19:24 -8.82130 13.79358 6889 ft 250 kts 221°
2026-05-05 19:24 -8.83416 13.78175 6638 ft 247 kts 221°
2026-05-05 19:24 -8.84636 13.77048 6407 ft 230 kts 220°
2026-05-05 19:24 -8.85782 13.75988 6083 ft 217 kts 221°
2026-05-05 19:25 -8.86880 13.74974 5772 ft 211 kts 220°
2026-05-05 19:25 -8.87971 13.73969 5505 ft 216 kts 220°
2026-05-05 19:25 -8.89077 13.72950 5236 ft 220 kts 220°
2026-05-05 19:25 -8.90159 13.71865 4959 ft 219 kts 228°
2026-05-05 19:26 -8.91082 13.70641 4673 ft 218 kts 231°
2026-05-05 19:26 -8.91966 13.69412 4362 ft 215 kts 232°
2026-05-05 19:26 -8.92846 13.68195 4072 ft 213 kts 232°
2026-05-05 19:26 -8.93703 13.67023 4041 ft 200 kts 231°
2026-05-05 19:27 -8.94536 13.65895 3918 ft 205 kts 231°
2026-05-05 19:27 -8.95379 13.64755 3690 ft 200 kts 231°
2026-05-05 19:27 -8.96196 13.63654 3409 ft 191 kts 231°
2026-05-05 19:27 -8.96967 13.62616 3169 ft 183 kts 232°
2026-05-05 19:28 -8.97716 13.61604 3103 ft 179 kts 232°
2026-05-05 19:28 -8.98476 13.60581 3075 ft 184 kts 231°
2026-05-05 19:28 -8.99250 13.59540 3093 ft 186 kts 232°
2026-05-05 19:28 -9.00039 13.58482 2993 ft 190 kts 231°
2026-05-05 19:29 -9.00851 13.57412 2672 ft 189 kts 232°
2026-05-05 19:29 -9.01627 13.56404 2562 ft 180 kts 232°
2026-05-05 19:29 -9.02381 13.55420 2339 ft 172 kts 232°
2026-05-05 19:29 -9.03085 13.54482 1773 ft 168 kts 235°
2026-05-05 19:30 -9.03753 13.53534 1226 ft 163 kts 235°
2026-05-05 19:30 -9.04379 13.52667 892 ft 142 kts 236°
2026-05-05 19:30 -9.04937 13.51885 654 ft 138 kts 235°
2026-05-05 19:30 -9.05529 13.51089 582 ft 144 kts 233°
2026-05-05 19:31 -9.06098 13.50309 545 ft 125 kts 235°
2026-05-05 19:31 -9.06399 13.49898 544 ft 95 kts 231°
2026-05-05 19:31 -9.06708 13.49499 534 ft 60 kts 232°
2026-05-05 19:31 -9.06936 13.49132 530 ft 18 kts 286°
2026-05-05 19:32 -9.06846 13.49053 527 ft 18 kts 353°
2026-05-05 19:32 -9.06744 13.49125 527 ft 20 kts 54°
2026-05-05 19:32 -9.06655 13.49249 528 ft 23 kts 53°
2026-05-05 19:32 -9.06558 13.49378 533 ft 23 kts 53°
2026-05-05 19:33 -9.06457 13.49513 537 ft 24 kts 53°
2026-05-05 19:33 -9.05871 13.50630 547 ft 0 kts 233°
2026-05-05 19:35 -9.05872 13.50629 547 ft 1 kts 233°
2026-05-05 19:35 -9.05876 13.50623 544 ft 2 kts 233°
2026-05-05 19:35 -9.05896 13.50595 546 ft 10 kts 234°
2026-05-05 19:35 -9.05961 13.50501 545 ft 24 kts 234°
2026-05-05 19:36 -9.06088 13.50319 545 ft 39 kts 235°
2026-05-05 19:36 -9.06247 13.50077 546 ft 28 kts 249°
2026-05-05 19:36 -9.06281 13.49949 547 ft 17 kts 256°
2026-05-05 19:36 -9.06282 13.49830 551 ft 17 kts 300°
2026-05-05 19:37 -9.06198 13.49772 554 ft 14 kts 327°
2026-05-05 19:37 -9.06117 13.49712 557 ft 14 kts 323°
2026-05-05 19:37 -9.06037 13.49652 558 ft 14 kts 324°
2026-05-05 19:37 -9.05957 13.49594 560 ft 14 kts 324°
2026-05-05 19:38 -9.05873 13.49542 552 ft 14 kts 350°
2026-05-05 19:38 -9.05792 13.49599 550 ft 15 kts 51°
2026-05-05 19:38 -9.05720 13.49682 546 ft 16 kts 49°
2026-05-05 19:38 -9.05650 13.49769 545 ft 16 kts 51°
2026-05-05 19:39 -9.05589 13.49868 544 ft 16 kts 58°
2026-05-05 19:39 -9.05542 13.49868 543 ft 8 kts 314°
2026-05-05 19:39 -9.05521 13.49847 543 ft 0 kts 316°
2026-05-05 19:41 -9.05521 13.49848 543 ft 0 kts 316°